Hourly Weather Rumbek

Today, 11 April, Sunday

Time Temperature Precipitation Wind Pressure Humidity
00:00 +32°C° 0 mm 2 mps 718 mmHg 41%
01:00 +32°C° 0 mm 2 mps 717 mmHg 43%
02:00 +31°C° 0 mm 2 mps 717 mmHg 45%
03:00 +31°C° 0 mm 2 mps 717 mmHg 48%
04:00 +30°C° 0 mm 1 mps 718 mmHg 51%
05:00 +29°C° 0 mm 1 mps 718 mmHg 54%
06:00 +30°C° 0 mm 1 mps 719 mmHg 51%
07:00 +31°C° 0 mm 1 mps 720 mmHg 47%
08:00 +32°C° 0 mm 1 mps 720 mmHg 44%
09:00 +34°C° 0 mm 1 mps 721 mmHg 39%
10:00 +37°C° 0 mm 1 mps 721 mmHg 33%
11:00 +40°C° 0 mm 1 mps 721 mmHg 27%
12:00 +41°C° 0 mm 1 mps 720 mmHg 25%
13:00 +41°C° 0 mm 1 mps 719 mmHg 22%
14:00 +42°C° 0 mm 1 mps 718 mmHg 20%
15:00 +41°C° 0 mm 2 mps 718 mmHg 22%
16:00 +39°C° 0 mm 2 mps 718 mmHg 25%
17:00 +38°C° 0 mm 2 mps 717 mmHg 27%
18:00 +37°C° 0 mm 2 mps 718 mmHg 29%
19:00 +36°C° 0 mm 2 mps 718 mmHg 30%
20:00 +35°C° 0 mm 2 mps 719 mmHg 32%
21:00 +35°C° 0 mm 2 mps 719 mmHg 34%
22:00 +35°C° 0 mm 3 mps 719 mmHg 36%
23:00 +34°C° 0 mm 3 mps 720 mmHg 37%

Tomorrow, 12 April, Monday

Time Temperature Precipitation Wind Pressure Humidity
00:00 +34°C° 0 mm 3 mps 719 mmHg 40%
01:00 +32°C° 0 mm 2 mps 719 mmHg 43%
02:00 +31°C° 0 mm 2 mps 718 mmHg 45%
03:00 +30°C° 0 mm 2 mps 719 mmHg 49%
04:00 +29°C° 0 mm 2 mps 719 mmHg 52%
05:00 +29°C° 0 mm 2 mps 720 mmHg 56%
06:00 +29°C° 0.3 mm 1 mps 721 mmHg 54%
07:00 +30°C° 0.3 mm 1 mps 722 mmHg 51%
08:00 +31°C° 0.3 mm 1 mps 723 mmHg 49%
09:00 +32°C° 0 mm 1 mps 723 mmHg 46%
10:00 +33°C° 0 mm 1 mps 723 mmHg 42%
11:00 +34°C° 0 mm 1 mps 723 mmHg 39%
12:00 +34°C° 0 mm 1 mps 722 mmHg 38%
13:00 +34°C° 0 mm 1 mps 721 mmHg 38%
14:00 +34°C° 0 mm 1 mps 720 mmHg 38%
15:00 +35°C° 0 mm 1 mps 720 mmHg 36%
16:00 +36°C° 0 mm 1 mps 720 mmHg 33%
17:00 +36°C° 0 mm 1 mps 719 mmHg 31%
18:00 +36°C° 0 mm 2 mps 720 mmHg 38%
19:00 +34°C° 0 mm 3 mps 720 mmHg 44%
20:00 +31°C° 0 mm 3 mps 721 mmHg 50%
21:00 +30°C° 0 mm 3 mps 721 mmHg 55%
22:00 +29°C° 0 mm 3 mps 721 mmHg 59%
23:00 +28°C° 0 mm 3 mps 721 mmHg 63%

Day after tomorrow, 13 April, Tuesday

Time Temperature Precipitation Wind Pressure Humidity
00:00 +28°C° 0 mm 2 mps 721 mmHg 63%
01:00 +28°C° 0 mm 2 mps 720 mmHg 62%
02:00 +28°C° 0 mm 1 mps 720 mmHg 62%
03:00 +28°C° 0 mm 1 mps 720 mmHg 63%
04:00 +27°C° 0 mm 1 mps 721 mmHg 64%
05:00 +27°C° 0 mm 1 mps 721 mmHg 65%
06:00 +28°C° 0 mm 1 mps 722 mmHg 63%
07:00 +28°C° 0 mm 1 mps 722 mmHg 61%
08:00 +29°C° 0 mm 1 mps 723 mmHg 59%
09:00 +31°C° 0 mm 1 mps 723 mmHg 51%
10:00 +34°C° 0 mm 1 mps 723 mmHg 43%
11:00 +36°C° 0 mm 1 mps 723 mmHg 35%
12:00 +37°C° 0 mm 1 mps 722 mmHg 31%
13:00 +39°C° 0 mm 1 mps 721 mmHg 27%
14:00 +40°C° 0 mm 1 mps 720 mmHg 23%
15:00 +40°C° 0 mm 2 mps 720 mmHg 25%
16:00 +39°C° 0 mm 2 mps 720 mmHg 27%
17:00 +38°C° 0 mm 3 mps 720 mmHg 29%
18:00 +36°C° 0 mm 3 mps 720 mmHg 34%
19:00 +35°C° 0 mm 3 mps 720 mmHg 40%
20:00 +33°C° 0 mm 3 mps 721 mmHg 45%
21:00 +31°C° 0 mm 3 mps 721 mmHg 48%
22:00 +31°C° 0 mm 3 mps 721 mmHg 51%
23:00 +30°C° 0 mm 3 mps 722 mmHg 54%

14 April, Wednesday

Time Temperature Precipitation Wind Pressure Humidity
00:00 +29°C° 0 mm 3 mps 721 mmHg 57%
01:00 +28°C° 0 mm 3 mps 721 mmHg 61%
02:00 +28°C° 0 mm 2 mps 721 mmHg 64%
03:00 +27°C° 0 mm 2 mps 721 mmHg 66%
04:00 +27°C° 0 mm 2 mps 721 mmHg 68%
05:00 +26°C° 0 mm 2 mps 721 mmHg 70%
06:00 +27°C° 0 mm 2 mps 722 mmHg 67%
07:00 +28°C° 0 mm 2 mps 722 mmHg 63%
08:00 +29°C° 0 mm 2 mps 723 mmHg 60%
09:00 +32°C° 0 mm 2 mps 723 mmHg 51%
10:00 +34°C° 0 mm 1 mps 723 mmHg 42%
11:00 +37°C° 0 mm 1 mps 723 mmHg 33%
12:00 +39°C° 0 mm 1 mps 722 mmHg 29%
13:00 +40°C° 0 mm 1 mps 721 mmHg 25%
14:00 +41°C° 0 mm 1 mps 720 mmHg 21%
15:00 +41°C° 0 mm 1 mps 720 mmHg 21%
16:00 +40°C° 0 mm 2 mps 719 mmHg 21%
17:00 +40°C° 0 mm 2 mps 719 mmHg 20%
18:00 +38°C° 0 mm 2 mps 719 mmHg 23%
19:00 +37°C° 0 mm 2 mps 720 mmHg 26%
20:00 +35°C° 0 mm 2 mps 720 mmHg 29%
21:00 +33°C° 0 mm 1 mps 720 mmHg 32%
22:00 +33°C° 0 mm 1 mps 720 mmHg 34%
23:00 +32°C° 0 mm 1 mps 721 mmHg 36%

15 April, Thursday

Time Temperature Precipitation Wind Pressure Humidity
00:00 +31°C° 0 mm 1 mps 720 mmHg 37%
01:00 +31°C° 0 mm 1 mps 720 mmHg 39%
02:00 +30°C° 0 mm 1 mps 719 mmHg 41%
03:00 +30°C° 0 mm 2 mps 719 mmHg 43%
04:00 +29°C° 0 mm 2 mps 720 mmHg 46%
05:00 +28°C° 0 mm 2 mps 720 mmHg 48%
06:00 +30°C° 0 mm 2 mps 720 mmHg 46%
07:00 +31°C° 0 mm 2 mps 721 mmHg 44%
08:00 +33°C° 0 mm 3 mps 721 mmHg 42%
09:00 +36°C° 0 mm 2 mps 722 mmHg 35%
10:00 +39°C° 0 mm 1 mps 722 mmHg 29%
11:00 +42°C° 0 mm 1 mps 722 mmHg 22%
12:00 +42°C° 0 mm 1 mps 721 mmHg 20%
13:00 +42°C° 0 mm 1 mps 720 mmHg 19%
14:00 +42°C° 0 mm 2 mps 719 mmHg 17%
15:00 +42°C° 0 mm 2 mps 718 mmHg 17%
16:00 +41°C° 0 mm 2 mps 718 mmHg 18%
17:00 +41°C° 0 mm 1 mps 718 mmHg 18%
18:00 +40°C° 0 mm 1 mps 718 mmHg 20%
19:00 +37°C° 0 mm 1 mps 719 mmHg 22%
20:00 +36°C° 0 mm 1 mps 719 mmHg 24%
21:00 +35°C° 0 mm 1 mps 719 mmHg 25%
22:00 +34°C° 0 mm 1 mps 719 mmHg 26%
23:00 +34°C° 0 mm 1 mps 719 mmHg 27%

16 April, Friday

Time Temperature Precipitation Wind Pressure Humidity
00:00 +34°C° 0 mm 2 mps 719 mmHg 29%
01:00 +32°C° 0 mm 2 mps 719 mmHg 31%
02:00 +32°C° 0 mm 2 mps 718 mmHg 33%
03:00 +31°C° 0 mm 2 mps 719 mmHg 36%
04:00 +30°C° 0 mm 1 mps 719 mmHg 40%
05:00 +29°C° 0 mm 1 mps 719 mmHg 43%
06:00 +30°C° 0 mm 1 mps 720 mmHg 42%
07:00 +31°C° 0 mm 2 mps 720 mmHg 40%
08:00 +34°C° 0 mm 2 mps 721 mmHg 39%
09:00 +37°C° 0 mm 2 mps 721 mmHg 33%
10:00 +40°C° 0 mm 1 mps 721 mmHg 27%
11:00 +40°C° 0 mm 0 mps 721 mmHg 21%
12:00 +40°C° 0 mm 0 mps 720 mmHg 19%
13:00 +43°C° 0 mm 1 mps 719 mmHg 17%
14:00 +43°C° 0 mm 1 mps 718 mmHg 15%
15:00 +42°C° 0 mm 2 mps 718 mmHg 18%
16:00 +41°C° 0 mm 2 mps 718 mmHg 20%
17:00 +40°C° 0 mm 3 mps 717 mmHg 22%
18:00 +38°C° 0 mm 3 mps 718 mmHg 27%
19:00 +36°C° 0 mm 2 mps 718 mmHg 31%
20:00 +35°C° 0 mm 2 mps 718 mmHg 36%
21:00 +34°C° 0 mm 2 mps 719 mmHg 37%
22:00 +32°C° 0 mm 2 mps 719 mmHg 38%
23:00 +32°C° 0 mm 2 mps 719 mmHg 39%
Show more